Cortland, IL

8:05 PM CDT on September 25, 2016 (GMT -0500)
De Kalb Taylor Municipal

Weather History for KDKB - March, 2013

Change the Weather History Date:

Monday, March 11, 2013

  Actual Average (KARR) Record (KARR)
Temperature  
Mean Temperature 34 °F 35 °F  
Max Temperature 40 °F 45 °F 67 °F (2012)
Min Temperature 30 °F 25 °F 9 °F (1999)
Degree Days  
Heating Degree Days 30 30  
Month to date heating degree days 356  
Since 1 July heating degree days 5494  
Cooling Degree Days 0 0  
Month to date cooling degree days 0  
Year to date cooling degree days 0  
Moisture  
Dew Point 31 °F    
Average Humidity 92    
Maximum Humidity 94    
Minimum Humidity 88    
Precipitation  
Precipitation 0.05 in 0.06 in 0.41 in (2010)
Month to date precipitation 0.74  
Year to date precipitation 3.83  
Sea Level Pressure  
Sea Level Pressure 29.63 in    
Wind  
Wind Speed 10 mph (WSW)    
Max Wind Speed 18 mph    
Max Gust Speed 24 mph    
Visibility 4 miles    
Events Fog , Rain , Snow    
T = Trace of Precipitation, MM = Missing Value Source: NWS Daily Summary

Daily Weather History Graph

Daily Weather History Graph

Search for Another Location

Airport or City:

Trip Planner

Search our weather history database for the weather conditions in past years. The results will help you decide how hot, cold, wet, or windy it might be!

Date:

Astronomy

Mar. 11, 2013 Rise Set
Actual Time 7:12 AM CDT 6:57 PM CDT
Civil Twilight 6:45 AM CDT 7:24 PM CDT
Nautical Twilight 6:12 AM CDT 7:57 PM CDT
Astronomical Twilight 5:40 AM CDT 8:30 PM CDT
Moon 6:46 AM CDT (3/11) 7:10 PM CDT (3/11)
Length of Visible Light 12h 39m
Length of Day
11h 44m
Waning Crescent, 0% of the Moon is Illuminated
Mar 11
Waning Crescent
Mar 11
New
Mar 19
First Quarter
Mar 27
Full
Apr 2
Last Quarter

Hourly Weather History & Observations

Time (CDT) Temp. Windchill Dew Point Humidity Pressure Visibility Wind Dir Wind Speed Gust Speed Precip Events Conditions
12:15 AM 37.8 °F 30.7 °F 35.6 °F 92% 29.63 in 0.2 mi South 10.4 mph - N/A Fog Fog
12:35 AM 37.6 °F 30.5 °F 35.6 °F 93% 29.62 in 0.2 mi SSW 10.4 mph - N/A Fog Fog
12:55 AM 37.8 °F 31.8 °F 35.8 °F 93% 29.62 in 0.2 mi SW 8.1 mph - N/A Snow Light Snow
1:15 AM 39.2 °F 32.5 °F 37.4 °F 93% 29.62 in 0.5 mi SW 10.4 mph - N/A Fog Fog
1:35 AM 39.2 °F 32.0 °F 36.7 °F 91% 29.62 in 0.2 mi SW 11.5 mph - N/A Fog Fog
1:55 AM 38.3 °F 33.2 °F 36.1 °F 92% 29.62 in 0.2 mi SW 6.9 mph - N/A Fog Fog
2:15 AM 37.6 °F 32.3 °F 35.6 °F 93% 29.62 in 0.5 mi WSW 6.9 mph - N/A Fog Fog
2:35 AM 37.4 °F 31.4 °F 35.4 °F 93% 29.62 in 0.2 mi WSW 8.1 mph - N/A Fog Fog
2:55 AM 36.9 °F 31.4 °F 34.7 °F 92% 29.62 in 0.2 mi WSW 6.9 mph - N/A Fog Fog
3:15 AM 35.2 °F 32.4 °F 33.1 °F 92% 29.62 in 0.2 mi South 3.5 mph - N/A Fog Fog
3:35 AM 35.1 °F 31.0 °F 32.9 °F 92% 29.62 in 0.2 mi WSW 4.6 mph - N/A Fog Fog
3:55 AM 36.3 °F 29.5 °F 34.0 °F 91% 29.61 in 0.5 mi West 9.2 mph - 0.01 in   Light Drizzle
4:15 AM 35.6 °F 29.9 °F 33.3 °F 91% 29.59 in 0.5 mi West 6.9 mph - N/A Fog Fog
4:35 AM 35.1 °F 30.1 °F 32.9 °F 92% 29.59 in 0.5 mi West 5.8 mph - N/A Fog Fog
4:55 AM 35.6 °F 31.7 °F 33.8 °F 93% 29.58 in 0.8 mi West 4.6 mph - N/A   Overcast
5:15 AM 35.1 °F - 32.9 °F 92% 29.57 in 1.0 mi Calm Calm - N/A   Overcast
5:35 AM 35.1 °F - 32.9 °F 92% 29.57 in 0.5 mi Calm Calm - N/A Fog Fog
5:55 AM 35.1 °F - 32.9 °F 92% 29.58 in 0.8 mi Calm Calm - N/A   Overcast
6:15 AM 34.2 °F 30.0 °F 32.2 °F 92% 29.60 in 0.8 mi South 4.6 mph - N/A   Drizzle
6:35 AM 33.8 °F - 32.0 °F 93% 29.60 in 0.8 mi Calm Calm - N/A   Light Drizzle
6:55 AM 33.8 °F 27.0 °F 32.0 °F 93% 29.61 in 0.8 mi SSE 8.1 mph - N/A   Overcast
7:15 AM 34.0 °F 29.8 °F 32.0 °F 92% 29.61 in 0.8 mi South 4.6 mph - N/A   Overcast
7:35 AM 33.8 °F 30.8 °F 32.0 °F 93% 29.60 in 0.2 mi South 3.5 mph - N/A Rain Rain
7:55 AM 33.8 °F 28.6 °F 32.0 °F 93% 29.61 in 0.2 mi South 5.8 mph - 0.01 in   Light Drizzle
8:15 AM 34.0 °F 27.2 °F 32.0 °F 92% 29.61 in 0.2 mi South 8.1 mph - N/A   Drizzle
8:35 AM 34.2 °F 28.2 °F 32.0 °F 92% 29.60 in 0.2 mi SSW 6.9 mph - 0.01 in Rain Rain
8:55 AM 35.1 °F 27.4 °F 32.9 °F 92% 29.60 in 3.0 mi WSW 10.4 mph - 0.02 in Rain Rain
9:15 AM 34.9 °F 27.1 °F 32.9 °F 92% 29.59 in 5.0 mi WSW 10.4 mph - N/A   Overcast
9:35 AM 34.3 °F 27.7 °F 32.2 °F 92% 29.59 in 4.0 mi WSW 8.1 mph - N/A   Overcast
9:55 AM 33.8 °F 25.8 °F 32.0 °F 93% 29.59 in 0.8 mi SW 10.4 mph - N/A   Overcast
10:15 AM 33.8 °F 26.4 °F 32.0 °F 93% 29.59 in 0.5 mi SW 9.2 mph - N/A Fog Fog
10:35 AM 33.8 °F 24.3 °F 32.0 °F 93% 29.59 in 0.8 mi SW 13.8 mph - N/A   Overcast
10:55 AM 33.3 °F 25.1 °F 31.5 °F 93% 29.58 in 0.8 mi SW 10.4 mph - N/A   Overcast
11:15 AM 33.1 °F 25.5 °F 31.1 °F 92% 29.58 in 0.8 mi SW 9.2 mph - N/A   Overcast
11:35 AM 32.9 °F 24.1 °F 31.1 °F 93% 29.59 in 0.8 mi SSW 11.5 mph - N/A   Light Drizzle
11:55 AM 32.9 °F 24.7 °F 31.1 °F 93% 29.58 in 1.2 mi SSW 10.4 mph - 0.01 in Rain Rain
12:15 PM 32.9 °F 25.3 °F 31.1 °F 93% 29.57 in 1.5 mi SW 9.2 mph - N/A Rain Light Rain
12:35 PM 32.9 °F 24.7 °F 31.1 °F 93% 29.56 in 1.8 mi SW 10.4 mph - N/A Rain Light Rain
12:55 PM 32.9 °F 24.7 °F 31.1 °F 93% 29.56 in 1.5 mi SW 10.4 mph - N/A Rain Light Rain
1:15 PM 32.9 °F 24.7 °F 31.1 °F 93% 29.56 in 1.5 mi SW 10.4 mph - N/A Rain Light Rain
1:35 PM 32.9 °F 24.1 °F 31.1 °F 93% 29.56 in 1.8 mi WSW 11.5 mph 17.3 mph N/A   Overcast
1:55 PM 32.5 °F 23.7 °F 31.1 °F 94% 29.55 in 1.2 mi West 11.5 mph - N/A Snow Light Snow
2:15 PM 32.5 °F 22.7 °F 30.7 °F 93% 29.55 in 2.5 mi West 13.8 mph - N/A Snow Light Snow
2:35 PM 32.7 °F 22.1 °F 30.9 °F 93% 29.56 in 5.0 mi West 16.1 mph - N/A Snow Light Snow
2:55 PM 32.5 °F 22.3 °F 30.7 °F 93% 29.56 in 5.0 mi West 15.0 mph - N/A Snow Light Snow
3:15 PM 32.5 °F 21.5 °F 30.7 °F 93% 29.56 in 2.0 mi West 17.3 mph 21.9 mph N/A Snow Light Snow
3:35 PM 32.0 °F 21.6 °F 30.0 °F 92% 29.57 in 4.0 mi West 15.0 mph 23.0 mph N/A   Overcast
3:55 PM 32.0 °F 22.1 °F 29.8 °F 92% 29.58 in 10.0 mi West 13.8 mph 20.7 mph N/A   Overcast
4:15 PM 31.6 °F 20.7 °F 29.7 °F 92% 29.60 in 10.0 mi West 16.1 mph - N/A   Overcast
4:35 PM 31.6 °F 21.6 °F 29.5 °F 92% 29.61 in 10.0 mi West 13.8 mph - N/A   Overcast
4:55 PM 31.3 °F 19.9 °F 29.3 °F 92% 29.61 in 10.0 mi West 17.3 mph 24.2 mph N/A   Overcast
5:15 PM 31.1 °F 20.5 °F 29.3 °F 93% 29.63 in 5.0 mi West 15.0 mph - N/A   Overcast
5:35 PM 31.1 °F 20.9 °F 29.1 °F 92% 29.63 in 5.0 mi West 13.8 mph 20.7 mph N/A   Overcast
5:55 PM 31.1 °F 20.5 °F 28.9 °F 92% 29.64 in 5.0 mi West 15.0 mph - N/A   Overcast
6:15 PM 30.9 °F 19.8 °F 28.8 °F 92% 29.66 in 7.0 mi West 16.1 mph 21.9 mph N/A Snow Light Snow
6:35 PM 30.7 °F 20.4 °F 28.4 °F 91% 29.67 in 10.0 mi West 13.8 mph 19.6 mph N/A   Overcast
6:55 PM 30.9 °F 22.2 °F 28.8 °F 92% 29.68 in 10.0 mi West 10.4 mph - N/A   Overcast
7:15 PM 30.9 °F 22.2 °F 28.9 °F 92% 29.68 in 10.0 mi West 10.4 mph 17.3 mph N/A   Overcast
7:35 PM 30.9 °F 20.7 °F 28.9 °F 92% 29.69 in 10.0 mi West 13.8 mph - N/A   Overcast
7:55 PM 30.9 °F 19.8 °F 28.8 °F 92% 29.70 in 10.0 mi West 16.1 mph 19.6 mph N/A   Overcast
8:15 PM 31.1 °F 20.5 °F 28.9 °F 92% 29.71 in 10.0 mi West 15.0 mph 23.0 mph N/A   Overcast
8:35 PM 31.1 °F 21.4 °F 29.1 °F 92% 29.72 in 10.0 mi West 12.7 mph - N/A   Overcast
8:55 PM 31.1 °F 20.1 °F 29.1 °F 92% 29.73 in 10.0 mi West 16.1 mph - N/A   Overcast
9:15 PM 31.6 °F 23.1 °F 29.3 °F 91% 29.74 in 10.0 mi West 10.4 mph - N/A   Overcast
9:35 PM 31.1 °F 20.1 °F 28.9 °F 92% 29.74 in 10.0 mi West 16.1 mph - N/A   Overcast
9:55 PM 31.5 °F 21.4 °F 28.9 °F 90% 29.76 in 10.0 mi West 13.8 mph - N/A   Overcast
10:15 PM 31.1 °F 20.1 °F 28.4 °F 90% 29.76 in 10.0 mi West 16.1 mph 20.7 mph N/A   Overcast
10:35 PM 31.1 °F 20.9 °F 28.4 °F 90% 29.77 in 10.0 mi West 13.8 mph 19.6 mph N/A   Overcast
10:55 PM 30.9 °F 20.2 °F 28.2 °F 90% 29.78 in 7.0 mi West 15.0 mph 18.4 mph N/A   Overcast
11:15 PM 30.7 °F 20.0 °F 27.5 °F 88% 29.79 in 10.0 mi West 15.0 mph - N/A   Overcast
11:35 PM 30.6 °F 18.6 °F 27.3 °F 88% 29.79 in 7.0 mi West 18.4 mph 23.0 mph N/A   Overcast
11:55 PM 30.2 °F 18.9 °F 27.0 °F 88% 29.79 in 10.0 mi West 16.1 mph 21.9 mph N/A   Overcast